This is the latest recevied weather packets stored in our database for station/object N5YHM-13. If no packets are shown the sender has not sent any weather packets the latest 10 day(s).
| Time | Temp. | Humidity | Pressure | Rain* | Wind** | Luminosity | Snow |
|---|---|---|---|---|---|---|---|
| 1788131545 | 29.44° C | 83% | 1017.4 hPa | 0 mm | - | 5 W/m² | - |
| 1788131240 | 29.44° C | 82% | 1017.2 hPa | 0 mm | - | 5 W/m² | - |
| 1788130935 | 29.44° C | 82% | 1017.3 hPa | 0 mm | - | 6 W/m² | - |
| 1788130629 | 29.44° C | 83% | 1017.3 hPa | 0 mm | - | 7 W/m² | - |
| 1788130324 | 30° C | 83% | 1017.2 hPa | 0 mm | - | 7 W/m² | - |
| 1788130023 | 30° C | 83% | 1017.5 hPa | 0 mm | - | 8 W/m² | - |
| 1788129719 | 30° C | 81% | 1017.3 hPa | 0 mm | - | 9 W/m² | - |
| 1788129416 | 30° C | 81% | 1017.2 hPa | 0 mm | - | 11 W/m² | - |
| 1788129115 | 30° C | 81% | 1017.2 hPa | 0 mm | - | 12 W/m² | - |
| 1788128810 | 30° C | 80% | 1017 hPa | 0 mm | - | 12 W/m² | - |
| 1788128500 | 30° C | 80% | 1017.1 hPa | 0 mm | - | 13 W/m² | - |
| 1788128195 | 30° C | 79% | 1017.3 hPa | 0 mm | - | 14 W/m² | - |
| 1788127886 | 30° C | 81% | 1017.4 hPa | 0 mm | - | 14 W/m² | - |
| 1788127582 | 30° C | 80% | 1017.2 hPa | 0 mm | - | 14 W/m² | - |
| 1788127280 | 30.56° C | 79% | 1017.4 hPa | 0 mm | - | 13 W/m² | - |
| 1788126979 | 30.56° C | 77% | 1017.5 hPa | 0 mm | - | 11 W/m² | - |
| 1788126674 | 30.56° C | 78% | 1017.2 hPa | 0 mm | - | 15 W/m² | - |
| 1788126369 | 31.11° C | 78% | 1017.2 hPa | 0 mm | - | 16 W/m² | - |
| 1788126063 | 31.11° C | 77% | 1017.1 hPa | 0 mm | - | 15 W/m² | - |
| 1788125757 | 31.11° C | 77% | 1017.1 hPa | 0 mm | - | 17 W/m² | - |
| 1788125453 | 31.11° C | 78% | 1017.2 hPa | 0 mm | - | 16 W/m² | - |
| 1788125148 | 31.11° C | 79% | 1017.1 hPa | 0 mm | - | 16 W/m² | - |
| 1788124843 | 31.11° C | 77% | 1017.2 hPa | 0 mm | - | 16 W/m² | - |
| 1788124538 | 31.11° C | 75% | 1017.2 hPa | 0 mm | - | 19 W/m² | - |
| 1788124237 | 31.11° C | 77% | 1017.4 hPa | 0 mm | - | 20 W/m² | - |
* Rain latest hour (hover to see other rain measurements)
** Current wind speed in m/s (hover to see current wind gust speed)